Year,Month,Day,Hour,Minute,Value (Times are PST for insolation in W/m^2)
2021,02,27,00,00,0.00
2021,02,27,00,01,0.00
2021,02,27,00,02,0.00
2021,02,27,00,03,0.00
2021,02,27,00,04,0.00
2021,02,27,00,05,0.00
2021,02,27,00,06,0.00
2021,02,27,00,07,0.00
2021,02,27,00,08,0.00
2021,02,27,00,09,0.00
2021,02,27,00,10,0.00
2021,02,27,00,11,0.00
2021,02,27,00,12,0.00
2021,02,27,00,13,0.00
2021,02,27,00,14,0.00
2021,02,27,00,15,0.00
2021,02,27,00,16,0.00
2021,02,27,00,17,0.00
2021,02,27,00,18,0.00
2021,02,27,00,19,0.00
2021,02,27,00,20,0.00
2021,02,27,00,21,0.00
2021,02,27,00,22,0.00
2021,02,27,00,23,0.00
2021,02,27,00,24,0.00
2021,02,27,00,25,0.00
2021,02,27,00,26,0.00
2021,02,27,00,27,0.00
2021,02,27,00,28,0.00
2021,02,27,00,29,0.00
2021,02,27,00,30,0.00
2021,02,27,00,31,0.00
2021,02,27,00,32,0.00
2021,02,27,00,33,0.00
2021,02,27,00,34,0.00
2021,02,27,00,35,0.00
2021,02,27,00,36,0.00
2021,02,27,00,37,0.00
2021,02,27,00,38,0.00
2021,02,27,00,39,0.00
2021,02,27,00,40,0.00
2021,02,27,00,41,0.00
2021,02,27,00,42,0.00
2021,02,27,00,43,0.00
2021,02,27,00,44,0.00
2021,02,27,00,45,0.00
2021,02,27,00,46,0.00
2021,02,27,00,47,0.00
2021,02,27,00,48,0.00
2021,02,27,00,49,0.00
2021,02,27,00,50,0.00
2021,02,27,00,51,0.00
2021,02,27,00,52,0.00
2021,02,27,00,53,0.00
2021,02,27,00,54,0.00
2021,02,27,00,55,0.00
2021,02,27,00,56,0.00
2021,02,27,00,57,0.00
2021,02,27,00,58,0.00
2021,02,27,00,59,0.00
2021,02,27,01,00,0.00
2021,02,27,01,01,0.00
2021,02,27,01,02,0.00
2021,02,27,01,03,0.00
2021,02,27,01,04,0.00
2021,02,27,01,05,0.00
2021,02,27,01,06,0.00
2021,02,27,01,07,0.00
2021,02,27,01,08,0.00
2021,02,27,01,09,0.00
2021,02,27,01,10,0.00
2021,02,27,01,11,0.00
2021,02,27,01,12,0.00
2021,02,27,01,13,0.00
2021,02,27,01,14,0.00
2021,02,27,01,15,0.00
2021,02,27,01,16,0.00
2021,02,27,01,17,0.00
2021,02,27,01,18,0.00
2021,02,27,01,19,0.00
2021,02,27,01,20,0.00
2021,02,27,01,21,0.00
2021,02,27,01,22,0.00
2021,02,27,01,23,0.00
2021,02,27,01,24,0.00
2021,02,27,01,25,0.00
2021,02,27,01,26,0.00
2021,02,27,01,27,0.00
2021,02,27,01,28,0.00
2021,02,27,01,29,0.00
2021,02,27,01,30,0.00
2021,02,27,01,31,0.00
2021,02,27,01,32,0.00
2021,02,27,01,33,0.00
2021,02,27,01,34,0.00
2021,02,27,01,35,0.00
2021,02,27,01,36,0.00
2021,02,27,01,37,0.00
2021,02,27,01,38,0.00
2021,02,27,01,39,0.00
2021,02,27,01,40,0.00
2021,02,27,01,41,0.00
2021,02,27,01,42,0.00
2021,02,27,01,43,0.00
2021,02,27,01,44,0.00
2021,02,27,01,45,0.00
2021,02,27,01,46,0.00
2021,02,27,01,47,0.00
2021,02,27,01,48,0.00
2021,02,27,01,49,0.00
2021,02,27,01,50,0.00
2021,02,27,01,51,0.00
2021,02,27,01,52,0.00
2021,02,27,01,53,0.00
2021,02,27,01,54,0.00
2021,02,27,01,55,0.00
2021,02,27,01,56,0.00
2021,02,27,01,57,0.00
2021,02,27,01,58,0.00
2021,02,27,01,59,0.00
2021,02,27,02,00,0.00
2021,02,27,02,01,0.00
2021,02,27,02,02,0.00
2021,02,27,02,03,0.00
2021,02,27,02,04,0.00
2021,02,27,02,05,0.00
2021,02,27,02,06,0.00
2021,02,27,02,07,0.00
2021,02,27,02,08,0.00
2021,02,27,02,09,0.00
2021,02,27,02,10,0.00
2021,02,27,02,11,0.00
2021,02,27,02,12,0.00
2021,02,27,02,13,0.00
2021,02,27,02,14,0.00
2021,02,27,02,15,0.00
2021,02,27,02,16,0.00
2021,02,27,02,17,0.00
2021,02,27,02,18,0.00
2021,02,27,02,19,0.00
2021,02,27,02,20,0.00
2021,02,27,02,21,0.00
2021,02,27,02,22,0.00
2021,02,27,02,23,0.00
2021,02,27,02,24,0.00
2021,02,27,02,25,0.00
2021,02,27,02,26,0.00
2021,02,27,02,27,0.00
2021,02,27,02,28,0.00
2021,02,27,02,29,0.00
2021,02,27,02,30,0.00
2021,02,27,02,31,0.00
2021,02,27,02,32,0.00
2021,02,27,02,33,0.00
2021,02,27,02,34,0.00
2021,02,27,02,35,0.00
2021,02,27,02,36,0.00
2021,02,27,02,37,0.00
2021,02,27,02,38,0.00
2021,02,27,02,39,0.00
2021,02,27,02,40,0.00
2021,02,27,02,41,0.00
2021,02,27,02,42,0.00
2021,02,27,02,43,0.00
2021,02,27,02,44,0.00
2021,02,27,02,45,0.00
2021,02,27,02,46,0.00
2021,02,27,02,47,0.00
2021,02,27,02,48,0.00
2021,02,27,02,49,0.00
2021,02,27,02,50,0.00
2021,02,27,02,51,0.00
2021,02,27,02,52,0.00
2021,02,27,02,53,0.00
2021,02,27,02,54,0.00
2021,02,27,02,55,0.00
2021,02,27,02,56,0.00
2021,02,27,02,57,0.00
2021,02,27,02,58,0.00
2021,02,27,02,59,0.00
2021,02,27,03,00,0.00
2021,02,27,03,01,0.00
2021,02,27,03,02,0.00
2021,02,27,03,03,0.00
2021,02,27,03,04,0.00
2021,02,27,03,05,0.00
2021,02,27,03,06,0.00
2021,02,27,03,07,0.00
2021,02,27,03,08,0.00
2021,02,27,03,09,0.00
2021,02,27,03,10,0.00
2021,02,27,03,11,0.00
2021,02,27,03,12,0.00
2021,02,27,03,13,0.00
2021,02,27,03,14,0.00
2021,02,27,03,15,0.00
2021,02,27,03,16,0.00
2021,02,27,03,17,0.00
2021,02,27,03,18,0.00
2021,02,27,03,19,0.00
2021,02,27,03,20,0.00
2021,02,27,03,21,0.00
2021,02,27,03,22,0.00
2021,02,27,03,23,0.00
2021,02,27,03,24,0.00
2021,02,27,03,25,0.00
2021,02,27,03,26,0.00
2021,02,27,03,27,0.00
2021,02,27,03,28,0.00
2021,02,27,03,29,0.00
2021,02,27,03,30,0.00
2021,02,27,03,31,0.00
2021,02,27,03,32,0.00
2021,02,27,03,33,0.00
2021,02,27,03,34,0.00
2021,02,27,03,35,0.00
2021,02,27,03,36,0.00
2021,02,27,03,37,0.00
2021,02,27,03,38,0.00
2021,02,27,03,39,0.00
2021,02,27,03,40,0.00
2021,02,27,03,41,0.00
2021,02,27,03,42,0.00
2021,02,27,03,43,0.00
2021,02,27,03,44,0.00
2021,02,27,03,45,0.00
2021,02,27,03,46,0.00
2021,02,27,03,47,0.00
2021,02,27,03,48,0.00
2021,02,27,03,49,0.00
2021,02,27,03,50,0.00
2021,02,27,03,51,0.00
2021,02,27,03,52,0.00
2021,02,27,03,53,0.00
2021,02,27,03,54,0.00
2021,02,27,03,55,0.00
2021,02,27,03,56,0.00
2021,02,27,03,57,0.00
2021,02,27,03,58,0.00
2021,02,27,03,59,0.00
2021,02,27,04,00,0.00
2021,02,27,04,01,0.00
2021,02,27,04,02,0.00
2021,02,27,04,03,0.00
2021,02,27,04,04,0.00
2021,02,27,04,05,0.00
2021,02,27,04,06,0.00
2021,02,27,04,07,0.00
2021,02,27,04,08,0.00
2021,02,27,04,09,0.00
2021,02,27,04,10,0.00
2021,02,27,04,11,0.00
2021,02,27,04,12,0.00
2021,02,27,04,13,0.00
2021,02,27,04,14,0.00
2021,02,27,04,15,0.00
2021,02,27,04,16,0.00
2021,02,27,04,17,0.00
2021,02,27,04,18,0.00
2021,02,27,04,19,0.00
2021,02,27,04,20,0.00
2021,02,27,04,21,0.00
2021,02,27,04,22,0.00
2021,02,27,04,23,0.00
2021,02,27,04,24,0.00
2021,02,27,04,25,0.00
2021,02,27,04,26,0.00
2021,02,27,04,27,0.00
2021,02,27,04,28,0.00
2021,02,27,04,29,0.00
2021,02,27,04,30,0.00
2021,02,27,04,31,0.00
2021,02,27,04,32,0.00
2021,02,27,04,33,0.00
2021,02,27,04,34,0.00
2021,02,27,04,35,0.00
2021,02,27,04,36,0.00
2021,02,27,04,37,0.00
2021,02,27,04,38,0.00
2021,02,27,04,39,0.00
2021,02,27,04,40,0.00
2021,02,27,04,41,0.00
2021,02,27,04,42,0.00
2021,02,27,04,43,0.00
2021,02,27,04,44,0.00
2021,02,27,04,45,0.00
2021,02,27,04,46,0.00
2021,02,27,04,47,0.00
2021,02,27,04,48,0.00
2021,02,27,04,49,0.00
2021,02,27,04,50,0.00
2021,02,27,04,51,0.00
2021,02,27,04,52,0.00
2021,02,27,04,53,0.00
2021,02,27,04,54,0.00
2021,02,27,04,55,0.00
2021,02,27,04,56,0.00
2021,02,27,04,57,0.00
2021,02,27,04,58,0.00
2021,02,27,04,59,0.00
2021,02,27,05,00,0.00
2021,02,27,05,01,0.00
2021,02,27,05,02,0.00
2021,02,27,05,03,0.00
2021,02,27,05,04,0.00
2021,02,27,05,05,0.00
2021,02,27,05,06,0.00
2021,02,27,05,07,0.00
2021,02,27,05,08,0.00
2021,02,27,05,09,0.00
2021,02,27,05,10,0.00
2021,02,27,05,11,0.00
2021,02,27,05,12,0.00
2021,02,27,05,13,0.00
2021,02,27,05,14,0.00
2021,02,27,05,15,0.00
2021,02,27,05,16,0.00
2021,02,27,05,17,0.00
2021,02,27,05,18,0.00
2021,02,27,05,19,0.00
2021,02,27,05,20,0.00
2021,02,27,05,21,0.00
2021,02,27,05,22,0.00
2021,02,27,05,23,0.00
2021,02,27,05,24,0.00
2021,02,27,05,25,0.00
2021,02,27,05,26,0.00
2021,02,27,05,27,0.00
2021,02,27,05,28,0.00
2021,02,27,05,29,0.00
2021,02,27,05,30,0.00
2021,02,27,05,31,0.00
2021,02,27,05,32,0.00
2021,02,27,05,33,0.00
2021,02,27,05,34,0.00
2021,02,27,05,35,0.00
2021,02,27,05,36,0.00
2021,02,27,05,37,0.00
2021,02,27,05,38,0.00
2021,02,27,05,39,0.00
2021,02,27,05,40,0.00
2021,02,27,05,41,0.00
2021,02,27,05,42,0.00
2021,02,27,05,43,0.00
2021,02,27,05,44,0.00
2021,02,27,05,45,0.00
2021,02,27,05,46,0.00
2021,02,27,05,47,0.00
2021,02,27,05,48,0.00
2021,02,27,05,49,0.00
2021,02,27,05,50,0.00
2021,02,27,05,51,0.00
2021,02,27,05,52,0.00
2021,02,27,05,53,0.00
2021,02,27,05,54,0.00
2021,02,27,05,55,0.00
2021,02,27,05,56,0.00
2021,02,27,05,57,0.00
2021,02,27,05,58,0.00
2021,02,27,05,59,0.00
2021,02,27,06,00,0.00
2021,02,27,06,01,0.00
2021,02,27,06,02,0.00
2021,02,27,06,03,0.00
2021,02,27,06,04,0.00
2021,02,27,06,05,0.00
2021,02,27,06,06,0.00
2021,02,27,06,07,0.00
2021,02,27,06,08,0.00
2021,02,27,06,09,0.00
2021,02,27,06,10,0.00
2021,02,27,06,11,0.00
2021,02,27,06,12,0.00
2021,02,27,06,13,0.00
2021,02,27,06,14,0.00
2021,02,27,06,15,0.00
2021,02,27,06,16,0.00
2021,02,27,06,17,0.00
2021,02,27,06,18,0.00
2021,02,27,06,19,0.00
2021,02,27,06,20,0.00
2021,02,27,06,21,0.00
2021,02,27,06,22,0.00
2021,02,27,06,23,0.00
2021,02,27,06,24,0.00
2021,02,27,06,25,0.00
2021,02,27,06,26,0.00
2021,02,27,06,27,0.00
2021,02,27,06,28,0.00
2021,02,27,06,29,0.00
2021,02,27,06,30,0.00
2021,02,27,06,31,0.00
2021,02,27,06,32,0.00
2021,02,27,06,33,0.00
2021,02,27,06,34,0.00
2021,02,27,06,35,0.00
2021,02,27,06,36,0.00
2021,02,27,06,37,0.00
2021,02,27,06,38,0.00
2021,02,27,06,39,0.00
2021,02,27,06,40,0.00
2021,02,27,06,41,0.00
2021,02,27,06,42,0.00
2021,02,27,06,43,0.00
2021,02,27,06,44,0.00
2021,02,27,06,45,0.00
2021,02,27,06,46,0.00
2021,02,27,06,47,0.00
2021,02,27,06,48,0.00
2021,02,27,06,49,0.00
2021,02,27,06,50,0.00
2021,02,27,06,51,0.00
2021,02,27,06,52,0.00
2021,02,27,06,53,0.00
2021,02,27,06,54,0.00
2021,02,27,06,55,0.00
2021,02,27,06,56,0.00
2021,02,27,06,57,0.00
2021,02,27,06,58,0.00
2021,02,27,06,59,0.00
2021,02,27,07,00,0.00
2021,02,27,07,01,0.00
2021,02,27,07,02,0.00
2021,02,27,07,03,0.00
2021,02,27,07,04,0.00
2021,02,27,07,05,0.00
2021,02,27,07,06,0.00
2021,02,27,07,07,0.00
2021,02,27,07,08,0.00
2021,02,27,07,09,0.00
2021,02,27,07,10,0.00
2021,02,27,07,11,0.00
2021,02,27,07,12,0.00
2021,02,27,07,13,0.00
2021,02,27,07,14,0.00
2021,02,27,07,15,3.10
2021,02,27,07,16,5.00
2021,02,27,07,17,5.00
2021,02,27,07,18,5.20
2021,02,27,07,19,7.00
2021,02,27,07,20,7.00
2021,02,27,07,21,8.00
2021,02,27,07,22,9.00
2021,02,27,07,23,9.00
2021,02,27,07,24,10.80
2021,02,27,07,25,11.00
2021,02,27,07,26,11.20
2021,02,27,07,27,12.00
2021,02,27,07,28,13.00
2021,02,27,07,29,14.00
2021,02,27,07,30,14.00
2021,02,27,07,31,15.80
2021,02,27,07,32,16.00
2021,02,27,07,33,16.50
2021,02,27,07,34,18.00
2021,02,27,07,35,18.50
2021,02,27,07,36,19.00
2021,02,27,07,37,19.00
2021,02,27,07,38,19.00
2021,02,27,07,39,21.00
2021,02,27,07,40,21.00
2021,02,27,07,41,21.00
2021,02,27,07,42,22.00
2021,02,27,07,43,23.00
2021,02,27,07,44,23.00
2021,02,27,07,45,24.80
2021,02,27,07,46,25.20
2021,02,27,07,47,26.00
2021,02,27,07,48,26.70
2021,02,27,07,49,28.00
2021,02,27,07,50,29.30
2021,02,27,07,51,31.50
2021,02,27,07,52,32.80
2021,02,27,07,53,35.20
2021,02,27,07,54,37.50
2021,02,27,07,55,39.40
2021,02,27,07,56,40.00
2021,02,27,07,57,41.30
2021,02,27,07,58,42.00
2021,02,27,07,59,43.70
2021,02,27,08,00,46.00
2021,02,27,08,01,46.30
2021,02,27,08,02,47.00
2021,02,27,08,03,47.00
2021,02,27,08,04,48.30
2021,02,27,08,05,49.00
2021,02,27,08,06,50.80
2021,02,27,08,07,51.20
2021,02,27,08,08,53.00
2021,02,27,08,09,53.00
2021,02,27,08,10,53.00
2021,02,27,08,11,53.00
2021,02,27,08,12,53.70
2021,02,27,08,13,54.00
2021,02,27,08,14,54.20
2021,02,27,08,15,56.50
2021,02,27,08,16,58.00
2021,02,27,08,17,59.00
2021,02,27,08,18,60.00
2021,02,27,08,19,61.50
2021,02,27,08,20,62.90
2021,02,27,08,21,65.20
2021,02,27,08,22,67.00
2021,02,27,08,23,67.70
2021,02,27,08,24,69.50
2021,02,27,08,25,71.30
2021,02,27,08,26,75.00
2021,02,27,08,27,76.80
2021,02,27,08,28,79.20
2021,02,27,08,29,81.50
2021,02,27,08,30,83.40
2021,02,27,08,31,85.00
2021,02,27,08,32,86.00
2021,02,27,08,33,86.00
2021,02,27,08,34,86.00
2021,02,27,08,35,88.00
2021,02,27,08,36,88.00
2021,02,27,08,37,88.70
2021,02,27,08,38,90.50
2021,02,27,08,39,91.00
2021,02,27,08,40,94.10
2021,02,27,08,41,95.00
2021,02,27,08,42,97.10
2021,02,27,08,43,99.10
2021,02,27,08,44,102.70
2021,02,27,08,45,104.50
2021,02,27,08,46,106.20
2021,02,27,08,47,108.50
2021,02,27,08,48,110.70
2021,02,27,08,49,113.10
2021,02,27,08,50,114.50
2021,02,27,08,51,116.70
2021,02,27,08,52,118.00
2021,02,27,08,53,119.30
2021,02,27,08,54,120.80
2021,02,27,08,55,121.00
2021,02,27,08,56,123.00
2021,02,27,08,57,123.50
2021,02,27,08,58,125.00
2021,02,27,08,59,125.00
2021,02,27,09,00,125.00
2021,02,27,09,01,125.00
2021,02,27,09,02,125.00
2021,02,27,09,03,125.00
2021,02,27,09,04,124.50
2021,02,27,09,05,122.30
2021,02,27,09,06,120.50
2021,02,27,09,07,120.00
2021,02,27,09,08,118.50
2021,02,27,09,09,118.00
2021,02,27,09,10,118.00
2021,02,27,09,11,118.50
2021,02,27,09,12,120.40
2021,02,27,09,13,122.00
2021,02,27,09,14,124.30
2021,02,27,09,15,126.50
2021,02,27,09,16,127.90
2021,02,27,09,17,128.00
2021,02,27,09,18,128.00
2021,02,27,09,19,127.60
2021,02,27,09,20,126.00
2021,02,27,09,21,123.80
2021,02,27,09,22,121.50
2021,02,27,09,23,120.10
2021,02,27,09,24,117.80
2021,02,27,09,25,115.50
2021,02,27,09,26,114.00
2021,02,27,09,27,114.00
2021,02,27,09,28,115.30
2021,02,27,09,29,117.40
2021,02,27,09,30,119.80
2021,02,27,09,31,121.20
2021,02,27,09,32,123.50
2021,02,27,09,33,126.10
2021,02,27,09,34,129.90
2021,02,27,09,35,133.80
2021,02,27,09,36,138.00
2021,02,27,09,37,140.80
2021,02,27,09,38,142.20
2021,02,27,09,39,144.50
2021,02,27,09,40,147.10
2021,02,27,09,41,150.00
2021,02,27,09,42,152.30
2021,02,27,09,43,153.00
2021,02,27,09,44,153.00
2021,02,27,09,45,153.00
2021,02,27,09,46,153.00
2021,02,27,09,47,153.00
2021,02,27,09,48,154.00
2021,02,27,09,49,155.00
2021,02,27,09,50,157.30
2021,02,27,09,51,159.90
2021,02,27,09,52,163.50
2021,02,27,09,53,167.50
2021,02,27,09,54,169.00
2021,02,27,09,55,170.00
2021,02,27,09,56,171.00
2021,02,27,09,57,171.00
2021,02,27,09,58,171.00
2021,02,27,09,59,169.00
2021,02,27,10,00,168.50
2021,02,27,10,01,166.30
2021,02,27,10,02,164.00
2021,02,27,10,03,161.10
2021,02,27,10,04,158.60
2021,02,27,10,05,156.30
2021,02,27,10,06,155.90
2021,02,27,10,07,155.00
2021,02,27,10,08,154.20
2021,02,27,10,09,153.00
2021,02,27,10,10,153.00
2021,02,27,10,11,153.00
2021,02,27,10,12,153.00
2021,02,27,10,13,153.00
2021,02,27,10,14,152.50
2021,02,27,10,15,151.00
2021,02,27,10,16,150.00
2021,02,27,10,17,148.40
2021,02,27,10,18,146.50
2021,02,27,10,19,144.20
2021,02,27,10,20,141.90
2021,02,27,10,21,141.00
2021,02,27,10,22,140.30
2021,02,27,10,23,139.00
2021,02,27,10,24,139.00
2021,02,27,10,25,139.00
2021,02,27,10,26,140.80
2021,02,27,10,27,141.20
2021,02,27,10,28,142.00
2021,02,27,10,29,142.00
2021,02,27,10,30,141.50
2021,02,27,10,31,141.00
2021,02,27,10,32,141.00
2021,02,27,10,33,141.00
2021,02,27,10,34,142.20
2021,02,27,10,35,144.50
2021,02,27,10,36,146.80
2021,02,27,10,37,149.40
2021,02,27,10,38,153.50
2021,02,27,10,39,155.80
2021,02,27,10,40,159.40
2021,02,27,10,41,162.00
2021,02,27,10,42,162.30
2021,02,27,10,43,163.00
2021,02,27,10,44,162.50
2021,02,27,10,45,162.00
2021,02,27,10,46,162.80
2021,02,27,10,47,166.50
2021,02,27,10,48,171.60
2021,02,27,10,49,177.20
2021,02,27,10,50,182.50
2021,02,27,10,51,186.60
2021,02,27,10,52,189.30
2021,02,27,10,53,191.50
2021,02,27,10,54,192.90
2021,02,27,10,55,195.50
2021,02,27,10,56,199.80
2021,02,27,10,57,202.70
2021,02,27,10,58,205.40
2021,02,27,10,59,209.40
2021,02,27,11,00,212.50
2021,02,27,11,01,213.00
2021,02,27,11,02,212.80
2021,02,27,11,03,211.50
2021,02,27,11,04,213.00
2021,02,27,11,05,214.50
2021,02,27,11,06,218.60
2021,02,27,11,07,220.00
2021,02,27,11,08,220.00
2021,02,27,11,09,217.50
2021,02,27,11,10,212.80
2021,02,27,11,11,208.30
2021,02,27,11,12,206.50
2021,02,27,11,13,206.00
2021,02,27,11,14,208.20
2021,02,27,11,15,213.40
2021,02,27,11,16,222.00
2021,02,27,11,17,230.70
2021,02,27,11,18,237.20
2021,02,27,11,19,240.00
2021,02,27,11,20,237.90
2021,02,27,11,21,233.00
2021,02,27,11,22,230.20
2021,02,27,11,23,229.10
2021,02,27,11,24,230.00
2021,02,27,11,25,230.00
2021,02,27,11,26,228.40
2021,02,27,11,27,225.80
2021,02,27,11,28,223.50
2021,02,27,11,29,223.00
2021,02,27,11,30,222.80
2021,02,27,11,31,221.00
2021,02,27,11,32,221.00
2021,02,27,11,33,221.00
2021,02,27,11,34,221.00
2021,02,27,11,35,221.00
2021,02,27,11,36,220.20
2021,02,27,11,37,220.10
2021,02,27,11,38,221.50
2021,02,27,11,39,223.00
2021,02,27,11,40,222.00
2021,02,27,11,41,219.10
2021,02,27,11,42,215.10
2021,02,27,11,43,215.80
2021,02,27,11,44,216.20
2021,02,27,11,45,218.70
2021,02,27,11,46,221.70
2021,02,27,11,47,223.00
2021,02,27,11,48,221.70
2021,02,27,11,49,221.00
2021,02,27,11,50,228.00
2021,02,27,11,51,237.00
2021,02,27,11,52,246.20
2021,02,27,11,53,253.80
2021,02,27,11,54,257.60
2021,02,27,11,55,263.00
2021,02,27,11,56,269.30
2021,02,27,11,57,271.80
2021,02,27,11,58,266.20
2021,02,27,11,59,258.80
2021,02,27,12,00,253.50
2021,02,27,12,01,248.50
2021,02,27,12,02,242.90
2021,02,27,12,03,238.00
2021,02,27,12,04,234.50
2021,02,27,12,05,231.40
2021,02,27,12,06,225.90
2021,02,27,12,07,221.20
2021,02,27,12,08,215.60
2021,02,27,12,09,211.80
2021,02,27,12,10,209.50
2021,02,27,12,11,206.40
2021,02,27,12,12,206.00
2021,02,27,12,13,206.70
2021,02,27,12,14,209.70
2021,02,27,12,15,211.00
2021,02,27,12,16,211.00
2021,02,27,12,17,212.50
2021,02,27,12,18,213.80
2021,02,27,12,19,218.20
2021,02,27,12,20,220.70
2021,02,27,12,21,223.80
2021,02,27,12,22,225.00
2021,02,27,12,23,223.80
2021,02,27,12,24,223.00
2021,02,27,12,25,223.00
2021,02,27,12,26,222.80
2021,02,27,12,27,221.50
2021,02,27,12,28,224.40
2021,02,27,12,29,230.50
2021,02,27,12,30,237.20
2021,02,27,12,31,242.00
2021,02,27,12,32,245.70
2021,02,27,12,33,250.10
2021,02,27,12,34,251.50
2021,02,27,12,35,252.20
2021,02,27,12,36,251.00
2021,02,27,12,37,250.40
2021,02,27,12,38,250.00
2021,02,27,12,39,250.90
2021,02,27,12,40,251.20
2021,02,27,12,41,252.50
2021,02,27,12,42,248.50
2021,02,27,12,43,241.50
2021,02,27,12,44,235.80
2021,02,27,12,45,230.30
2021,02,27,12,46,222.00
2021,02,27,12,47,215.80
2021,02,27,12,48,214.50
2021,02,27,12,49,217.40
2021,02,27,12,50,220.50
2021,02,27,12,51,222.20
2021,02,27,12,52,221.50
2021,02,27,12,53,221.00
2021,02,27,12,54,221.70
2021,02,27,12,55,227.80
2021,02,27,12,56,231.60
2021,02,27,12,57,236.40
2021,02,27,12,58,240.20
2021,02,27,12,59,242.50
2021,02,27,13,00,243.00
2021,02,27,13,01,243.20
2021,02,27,13,02,244.50
2021,02,27,13,03,246.70
2021,02,27,13,04,249.00
2021,02,27,13,05,250.00
2021,02,27,13,06,250.70
2021,02,27,13,07,254.50
2021,02,27,13,08,258.60
2021,02,27,13,09,262.00
2021,02,27,13,10,262.00
2021,02,27,13,11,261.00
2021,02,27,13,12,261.30
2021,02,27,13,13,263.50
2021,02,27,13,14,264.00
2021,02,27,13,15,264.90
2021,02,27,13,16,263.00
2021,02,27,13,17,259.20
2021,02,27,13,18,257.50
2021,02,27,13,19,255.80
2021,02,27,13,20,253.50
2021,02,27,13,21,251.20
2021,02,27,13,22,250.60
2021,02,27,13,23,255.70
2021,02,27,13,24,256.20
2021,02,27,13,25,252.00
2021,02,27,13,26,252.30
2021,02,27,13,27,251.50
2021,02,27,13,28,251.00
2021,02,27,13,29,248.00
2021,02,27,13,30,248.50
2021,02,27,13,31,250.00
2021,02,27,13,32,250.50
2021,02,27,13,33,251.00
2021,02,27,13,34,247.40
2021,02,27,13,35,243.50
2021,02,27,13,36,238.40
2021,02,27,13,37,232.90
2021,02,27,13,38,228.90
2021,02,27,13,39,226.00
2021,02,27,13,40,225.00
2021,02,27,13,41,226.50
2021,02,27,13,42,227.00
2021,02,27,13,43,227.20
2021,02,27,13,44,229.00
2021,02,27,13,45,229.40
2021,02,27,13,46,231.00
2021,02,27,13,47,233.20
2021,02,27,13,48,235.50
2021,02,27,13,49,236.00
2021,02,27,13,50,236.00
2021,02,27,13,51,236.00
2021,02,27,13,52,234.50
2021,02,27,13,53,230.40
2021,02,27,13,54,226.60
2021,02,27,13,55,223.50
2021,02,27,13,56,221.20
2021,02,27,13,57,220.00
2021,02,27,13,58,218.60
2021,02,27,13,59,213.60
2021,02,27,14,00,210.90
2021,02,27,14,01,207.70
2021,02,27,14,02,204.80
2021,02,27,14,03,202.30
2021,02,27,14,04,196.40
2021,02,27,14,05,190.90
2021,02,27,14,06,187.30
2021,02,27,14,07,185.50
2021,02,27,14,08,185.00
2021,02,27,14,09,185.80
2021,02,27,14,10,185.10
2021,02,27,14,11,185.00
2021,02,27,14,12,184.50
2021,02,27,14,13,181.30
2021,02,27,14,14,175.10
2021,02,27,14,15,167.70
2021,02,27,14,16,161.20
2021,02,27,14,17,156.50
2021,02,27,14,18,156.00
2021,02,27,14,19,156.00
2021,02,27,14,20,156.00
2021,02,27,14,21,156.00
2021,02,27,14,22,156.00
2021,02,27,14,23,155.20
2021,02,27,14,24,155.00
2021,02,27,14,25,155.00
2021,02,27,14,26,155.00
2021,02,27,14,27,155.00
2021,02,27,14,28,155.50
2021,02,27,14,29,156.00
2021,02,27,14,30,157.50
2021,02,27,14,31,158.00
2021,02,27,14,32,157.80
2021,02,27,14,33,155.80
2021,02,27,14,34,153.60
2021,02,27,14,35,149.50
2021,02,27,14,36,146.70
2021,02,27,14,37,144.60
2021,02,27,14,38,145.70
2021,02,27,14,39,145.80
2021,02,27,14,40,143.50
2021,02,27,14,41,141.60
2021,02,27,14,42,140.00
2021,02,27,14,43,137.70
2021,02,27,14,44,135.50
2021,02,27,14,45,132.40
2021,02,27,14,46,129.80
2021,02,27,14,47,127.80
2021,02,27,14,48,126.30
2021,02,27,14,49,125.00
2021,02,27,14,50,125.00
2021,02,27,14,51,123.50
2021,02,27,14,52,121.30
2021,02,27,14,53,117.80
2021,02,27,14,54,115.50
2021,02,27,14,55,113.60
2021,02,27,14,56,111.10
2021,02,27,14,57,107.80
2021,02,27,14,58,105.50
2021,02,27,14,59,104.10
2021,02,27,15,00,103.80
2021,02,27,15,01,102.00
2021,02,27,15,02,102.00
2021,02,27,15,03,102.00
2021,02,27,15,04,100.70
2021,02,27,15,05,100.00
2021,02,27,15,06,100.00
2021,02,27,15,07,98.00
2021,02,27,15,08,97.80
2021,02,27,15,09,97.00
2021,02,27,15,10,97.00
2021,02,27,15,11,97.00
2021,02,27,15,12,97.00
2021,02,27,15,13,97.00
2021,02,27,15,14,97.00
2021,02,27,15,15,96.50
2021,02,27,15,16,93.50
2021,02,27,15,17,90.50
2021,02,27,15,18,87.60
2021,02,27,15,19,84.50
2021,02,27,15,20,81.40
2021,02,27,15,21,78.70
2021,02,27,15,22,75.50
2021,02,27,15,23,74.00
2021,02,27,15,24,73.00
2021,02,27,15,25,70.80
2021,02,27,15,26,69.30
2021,02,27,15,27,67.20
2021,02,27,15,28,66.80
2021,02,27,15,29,65.00
2021,02,27,15,30,65.70
2021,02,27,15,31,68.00
2021,02,27,15,32,69.60
2021,02,27,15,33,72.90
2021,02,27,15,34,75.80
2021,02,27,15,35,77.00
2021,02,27,15,36,77.50
2021,02,27,15,37,79.00
2021,02,27,15,38,80.00
2021,02,27,15,39,81.00
2021,02,27,15,40,82.50
2021,02,27,15,41,83.00
2021,02,27,15,42,83.00
2021,02,27,15,43,83.20
2021,02,27,15,44,84.00
2021,02,27,15,45,84.00
2021,02,27,15,46,84.00
2021,02,27,15,47,84.00
2021,02,27,15,48,84.00
2021,02,27,15,49,84.00
2021,02,27,15,50,83.80
2021,02,27,15,51,83.00
2021,02,27,15,52,82.00
2021,02,27,15,53,81.00
2021,02,27,15,54,79.50
2021,02,27,15,55,77.20
2021,02,27,15,56,73.50
2021,02,27,15,57,68.80
2021,02,27,15,58,62.50
2021,02,27,15,59,55.60
2021,02,27,16,00,50.50
2021,02,27,16,01,47.50
2021,02,27,16,02,47.00
2021,02,27,16,03,47.20
2021,02,27,16,04,49.00
2021,02,27,16,05,49.70
2021,02,27,16,06,52.00
2021,02,27,16,07,53.00
2021,02,27,16,08,53.00
2021,02,27,16,09,53.00
2021,02,27,16,10,50.80
2021,02,27,16,11,49.00
2021,02,27,16,12,49.00
2021,02,27,16,13,50.00
2021,02,27,16,14,52.20
2021,02,27,16,15,53.00
2021,02,27,16,16,53.00
2021,02,27,16,17,52.80
2021,02,27,16,18,50.50
2021,02,27,16,19,48.30
2021,02,27,16,20,46.50
2021,02,27,16,21,46.00
2021,02,27,16,22,46.00
2021,02,27,16,23,46.80
2021,02,27,16,24,47.20
2021,02,27,16,25,49.50
2021,02,27,16,26,51.00
2021,02,27,16,27,51.00
2021,02,27,16,28,49.70
2021,02,27,16,29,49.00
2021,02,27,16,30,47.20
2021,02,27,16,31,46.00
2021,02,27,16,32,45.50
2021,02,27,16,33,43.30
2021,02,27,16,34,42.00
2021,02,27,16,35,40.20
2021,02,27,16,36,39.00
2021,02,27,16,37,37.30
2021,02,27,16,38,35.00
2021,02,27,16,39,34.50
2021,02,27,16,40,33.00
2021,02,27,16,41,32.50
2021,02,27,16,42,32.00
2021,02,27,16,43,30.50
2021,02,27,16,44,30.00
2021,02,27,16,45,29.80
2021,02,27,16,46,28.00
2021,02,27,16,47,28.00
2021,02,27,16,48,28.00
2021,02,27,16,49,29.20
2021,02,27,16,50,30.00
2021,02,27,16,51,30.00
2021,02,27,16,52,30.00
2021,02,27,16,53,30.00
2021,02,27,16,54,29.30
2021,02,27,16,55,27.00
2021,02,27,16,56,25.40
2021,02,27,16,57,23.50
2021,02,27,16,58,21.30
2021,02,27,16,59,21.00
2021,02,27,17,00,21.00
2021,02,27,17,01,21.00
2021,02,27,17,02,21.00
2021,02,27,17,03,21.00
2021,02,27,17,04,21.00
2021,02,27,17,05,21.00
2021,02,27,17,06,21.20
2021,02,27,17,07,23.00
2021,02,27,17,08,23.00
2021,02,27,17,09,23.00
2021,02,27,17,10,23.00
2021,02,27,17,11,23.00
2021,02,27,17,12,24.80
2021,02,27,17,13,25.00
2021,02,27,17,14,25.00
2021,02,27,17,15,24.30
2021,02,27,17,16,23.00
2021,02,27,17,17,21.80
2021,02,27,17,18,21.00
2021,02,27,17,19,19.20
2021,02,27,17,20,19.00
2021,02,27,17,21,19.00